2023/10/01 00:00:00, 6.4,18.6
2023/10/01 00:10:00, 6.7,18.8
2023/10/01 00:20:00, 6.9,18.6
2023/10/01 00:30:00, 7.0,18.6
2023/10/01 00:40:00, 7.1,18.7
2023/10/01 00:50:00, 7.1,18.8
2023/10/01 01:00:00, 7.0,18.7
2023/10/01 01:10:00, 6.8,18.7
2023/10/01 01:20:00, 6.8,18.7
2023/10/01 01:30:00, 6.7,18.7
2023/10/01 01:40:00, 6.6,18.4
2023/10/01 01:50:00, 6.6,18.4
2023/10/01 02:00:00, 6.6,18.5
2023/10/01 02:10:00, 6.6,18.5
2023/10/01 02:20:00, 6.5,18.5
2023/10/01 02:30:00, 6.5,18.4
2023/10/01 02:40:00, 6.4,18.5
2023/10/01 02:50:00, 6.4,18.3
2023/10/01 03:00:00, 6.4,18.3
2023/10/01 03:10:00, 6.4,18.0
2023/10/01 03:20:00, 6.6,18.2
2023/10/01 03:30:00, 6.7,18.2
2023/10/01 03:40:00, 6.8,18.4
2023/10/01 03:50:00, 7.0,18.4
2023/10/01 04:00:00, 7.0,18.3
2023/10/01 04:10:00, 6.9,18.4
2023/10/01 04:20:00, 6.5,18.5
2023/10/01 04:30:00, 6.3,18.8
2023/10/01 04:40:00, 6.3,18.7
2023/10/01 04:50:00, 6.3,19.0
2023/10/01 05:00:00, 6.3,18.5
2023/10/01 05:10:00, 6.3,18.6
2023/10/01 05:20:00, 6.3,18.4
2023/10/01 05:30:00, 6.3,18.6
2023/10/01 05:40:00, 6.2,18.5
2023/10/01 05:50:00, 5.9,18.6
2023/10/01 06:00:00, 6.0,18.6
2023/10/01 06:10:00, 6.1,18.5
2023/10/01 06:20:00, 6.1,18.6
2023/10/01 06:30:00, 6.1,18.7
2023/10/01 06:40:00, 6.1,18.7
2023/10/01 06:50:00, 6.1,19.1
2023/10/01 07:00:00, 6.0,19.5
2023/10/01 07:10:00, 6.0,20.4
2023/10/01 07:20:00, 5.9,19.9
2023/10/01 07:30:00, 5.9,20.9
2023/10/01 07:40:00, 5.9,22.5
2023/10/01 07:50:00, 5.8,23.7
2023/10/01 08:00:00, 5.7,24.8
2023/10/01 08:10:00, 5.7,26.1
2023/10/01 08:20:00, 5.7,27.2
2023/10/01 08:30:00, 6.0,28.2
2023/10/01 08:40:00, 6.1,27.6
2023/10/01 08:50:00, 6.1,26.2
2023/10/01 09:00:00, 5.8,24.2
2023/10/01 09:10:00, 5.4,27.5
2023/10/01 09:20:00, 5.4,27.6
2023/10/01 09:30:00, 5.5,27.7
2023/10/01 09:40:00, 5.6,26.6
2023/10/01 09:50:00, 6.0,27.2
2023/10/01 10:00:00, 6.2,27.9
2023/10/01 10:10:00, 6.1,27.3
2023/10/01 10:20:00, 5.8,26.9
2023/10/01 10:30:00, 6.0,27.7
2023/10/01 10:40:00, 6.2,25.0
2023/10/01 10:50:00, 7.3,25.0
2023/10/01 11:00:00, 8.1,26.5
2023/10/01 11:10:00, 8.2,25.2
2023/10/01 11:20:00, 7.9,25.6
2023/10/01 11:30:00, 8.2,26.6
2023/10/01 11:40:00, 7.8,25.9
2023/10/01 11:50:00, 7.9,25.3
2023/10/01 12:00:00, 7.8,25.8
2023/10/01 12:10:00, 7.9,24.9
2023/10/01 12:20:00, 7.9,24.1
2023/10/01 12:30:00, 7.8,26.1
2023/10/01 12:40:00, 7.4,25.3
2023/10/01 12:50:00, 7.3,25.1
2023/10/01 13:00:00, 7.4,24.2
2023/10/01 13:10:00, 6.8,24.4
2023/10/01 13:20:00, 7.1,24.4
2023/10/01 13:30:00, 4.6,23.7
2023/10/01 13:40:00, 0.2,24.0
2023/10/01 13:50:00, 0.4,23.7
2023/10/01 14:00:00, 0.6,26.1
2023/10/01 14:10:00, 3.7,24.7
2023/10/01 14:20:00, 2.4,24.5
2023/10/01 14:30:00, 4.0,24.5
2023/10/01 14:40:00, 4.3,24.8
2023/10/01 14:50:00, 4.3,25.3
2023/10/01 15:00:00, 4.3,24.3
2023/10/01 15:10:00, 4.6,24.1
2023/10/01 15:20:00, 4.5,24.0
2023/10/01 15:30:00, 5.1,23.8
2023/10/01 15:40:00, 5.4,23.5
2023/10/01 15:50:00, 5.5,24.0
2023/10/01 16:00:00, 5.4,23.8
2023/10/01 16:10:00, 5.3,22.4
2023/10/01 16:20:00, 5.3,22.3
2023/10/01 16:30:00, 5.1,21.8
2023/10/01 16:40:00, 5.2,21.3
2023/10/01 16:50:00, 5.1,21.2
2023/10/01 17:00:00, 4.6,20.2
2023/10/01 17:10:00, 4.2,19.6
2023/10/01 17:20:00, 4.3,19.3
2023/10/01 17:30:00, 4.3,19.2
2023/10/01 17:40:00, 4.1,19.0
2023/10/01 17:50:00, 4.0,18.7
2023/10/01 18:00:00, 4.0,18.7
2023/10/01 18:10:00, 3.9,18.7
2023/10/01 18:20:00, 3.9,18.4
2023/10/01 18:30:00, 3.9,18.2
2023/10/01 18:40:00, 3.9,17.9
2023/10/01 18:50:00, 4.0,18.0
2023/10/01 19:00:00, 3.9,17.6
2023/10/01 19:10:00, 3.9,17.5
2023/10/01 19:20:00, 3.9,17.1
2023/10/01 19:30:00, 3.9,16.9
2023/10/01 19:40:00, 4.0,17.0
2023/10/01 19:50:00, 4.0,17.0
2023/10/01 20:00:00, 4.0,16.8
2023/10/01 20:10:00, 4.0,16.6
2023/10/01 20:20:00, 4.0,16.5
2023/10/01 20:30:00, 4.1,16.3
2023/10/01 20:40:00, 4.1,16.6
2023/10/01 20:50:00, 4.1,16.7
2023/10/01 21:00:00, 4.2,16.6
2023/10/01 21:10:00, 4.2,16.4
2023/10/01 21:20:00, 4.2,16.4
2023/10/01 21:30:00, 4.3,16.5
2023/10/01 21:40:00, 4.3,16.1
2023/10/01 21:50:00, 4.3,16.3
2023/10/01 22:00:00, 4.4,16.4
2023/10/01 22:10:00, 4.4,16.3
2023/10/01 22:20:00, 4.4,16.3
2023/10/01 22:30:00, 4.4,16.6
2023/10/01 22:40:00, 4.4,16.5
2023/10/01 22:50:00, 4.6,16.3
2023/10/01 23:00:00, 4.5,16.5
2023/10/01 23:10:00, 4.6,16.4
2023/10/01 23:20:00, 4.6,16.3
2023/10/01 23:30:00, 4.7,16.4
2023/10/01 23:40:00, 4.8,16.7
2023/10/01 23:50:00, 4.7,16.3
